User: anonymous   Login
Location: Mercogliano
(40.9167°N, 14.7333°E)
Time: 21:46:25
(UTC+00:00)
Language:

CZ-2C R/B - Orbit

View from above orbital plane
View from above orbital plane
View from above satellite
View from above satellite

Ground track
Ground track

The orbit data is extracted from the following two-line orbital elements,

1 28480U 04046B   21128.56767084 -.00000018  00000-0  85531-5 0  9990
2 28480  98.0520 143.7844 0141446 342.5689 124.7154 14.25751240856763
Epoch (UTC): 08 May 2021 13:37:26
Eccentricity: 0.0141446
inclination: 98.0520°
perigee height: 704 km
apogee height: 907 km
right ascension of ascending node: 143.7844°
argument of perigee: 342.5689°
revolutions per day: 14.25751240
mean anomaly at epoch: 124.7154°
orbit number at epoch: 85676

The dashed part of the orbit path shows where the satellite is in the earth's shadow,  

DLR